GW4079 Weather Reports


Display with metric or nautical units.
time (UTC)temp
F
wind
direction
speed
MPH
gust
MPH
rain 1hr
in
rain 24hr
in
rain mn
in
humidity
%
barometer
mb
20260507191548 65 350 10.0 17.0 0.00 0.00 0.00 33 1012.2
20260507190054 65 5 12.0 17.0 0.00 0.00 0.00 34 1012.1
20260507184546 67 10 12.0 18.0 0.00 0.00 0.00 31 1012.1
20260507183042 66 18 11.0 17.0 0.00 0.00 0.00 35 1012.3
20260507181539 66 5 11.0 17.0 0.00 0.00 0.00 33 1012.3
20260507180035 66 11 15.0 20.0 0.00 0.00 0.00 35 1012.7
20260507174554 65 13 14.0 25.0 0.00 0.00 0.00 36 1012.7
20260507173044 65 348 14.0 21.0 0.00 0.00 0.00 36 1012.7
20260507171547 65 22 15.0 23.0 0.00 0.00 0.00 37 1012.9
20260507170051 65 26 11.0 18.0 0.00 0.00 0.00 38 1013.0
20260507164547 64 24 9.0 19.0 0.00 0.00 0.00 38 1012.7
20260507163046 62 22 10.0 16.0 0.00 0.00 0.00 40 1012.9
20260507161611 63 38 6.0 12.0 0.00 0.00 0.00 40 1012.8
20260507160117 61 300 3.0 8.0 0.00 0.00 0.00 43 1013.0
20260507154559 57 248 4.0 7.0 0.00 0.00 0.00 46 1012.8
20260507153115 55 239 3.0 8.0 0.00 0.00 0.00 49 1013.1
20260507151558 54 199 4.0 7.0 0.00 0.00 0.00 49 1013.1
20260507150107 52 22 0.0 4.0 0.00 0.00 0.00 51 1012.8
20260507144552 51 42 4.0 7.0 0.00 0.00 0.00 52 1013.1
20260507143101 50 65 5.0 8.0 0.00 0.00 0.00 52 1013.1
20260507141558 51 58 7.0 13.0 0.00 0.00 0.00 52 1012.9
20260507140057 51 46 4.0 13.0 0.00 0.00 0.00 53 1012.7
20260507134600 51 360 7.0 9.0 0.00 0.00 0.00 53 1012.6
20260507133103 49 360 7.0 10.0 0.00 0.00 0.00 55 1012.3
20260507131604 47 349 4.0 11.0 0.00 0.00 0.00 54 1012.2
20260507130330 43 28 2.0 6.0 0.00 0.00 0.00 54 1012.2
20260507124557 43 10 5.0 8.0 0.00 0.00 0.00 54 1011.9
20260507123105 42 360 3.0 8.0 0.00 0.00 0.00 57 1011.6
20260507121558 41 34 0.0 4.0 0.00 0.00 0.00 57 1011.5
20260507120045 42 34 3.0 6.0 0.00 0.00 0.00 57 1011.4
20260507114552 43 350 0.0 2.0 0.00 0.00 0.00 56 1011.2
20260507113047 42 350 2.0 5.0 0.00 0.00 0.00 57 1011.1
20260507111546 41 343 0.0 4.0 0.00 0.00 0.00 59 1011.1
20260507110053 43 343 0.0 4.0 0.00 0.00 0.00 55 1011.1
20260507104554 42 269 3.0 6.0 0.00 0.00 0.00 56 1011.1
20260507103047 43 247 4.0 5.0 0.00 0.00 0.00 55 1011.0
20260507101556 41 26 1.0 6.0 0.00 0.00 0.00 61 1011.3
20260507100113 41 44 0.0 4.0 0.00 0.00 0.00 63 1010.2
20260507094559 40 49 3.0 5.0 0.00 0.00 0.00 65 1010.4
20260507093039 41 49 3.0 5.0 0.00 0.00 0.00 65 1010.7
20260507091548 42 40 4.0 7.0 0.00 0.00 0.00 62 1010.4
20260507090039 42 42 5.0 7.0 0.00 0.00 0.00 59 1010.3
20260507084548 41 45 4.0 6.0 0.00 0.00 0.00 62 1010.0
20260507083103 42 59 3.0 5.0 0.00 0.00 0.00 61 1009.8
20260507081557 43 72 6.0 10.0 0.00 0.00 0.00 62 1009.9
20260507080054 41 65 6.0 9.0 0.00 0.00 0.00 65 1009.8
20260507074608 44 46 5.0 9.0 0.00 0.00 0.00 60 1009.9
20260507073053 45 78 0.0 3.0 0.00 0.00 0.00 63 1009.6
20260507071545 46 202 3.0 6.0 0.00 0.00 0.00 61 1009.6
20260507070051 47 111 6.0 9.0 0.00 0.00 0.00 59 1009.4
20260507064550 48 80 5.0 9.0 0.00 0.00 0.00 58 1009.5
20260507063050 50 92 8.0 13.0 0.00 0.00 0.00 56 1009.4
20260507061610 53 84 12.0 17.0 0.00 0.00 0.00 49 1009.7
20260507060058 55 84 12.0 16.0 0.00 0.00 0.00 38 1009.2
20260507054556 56 109 7.0 12.0 0.00 0.00 0.00 33 1008.8
20260507053059 56 117 14.0 18.0 0.00 0.00 0.00 30 1008.1
20260507051607 56 119 12.0 16.0 0.00 0.00 0.00 30 1008.1
20260507050325 55 108 9.0 13.0 0.00 0.00 0.00 30 1008.4
20260507044556 56 126 9.0 12.0 0.00 0.00 0.00 29 1008.1
20260507043052 57 130 9.0 12.0 0.00 0.00 0.00 28 1008.1
20260507041824 57 129 7.0 9.0 0.00 0.00 0.00 27 1008.4
20260507040106 60 148 7.0 9.0 0.00 0.00 0.00 26 1008.6
20260507034610 57 110 0.0 8.0 0.00 0.00 0.00 29 1008.8
20260507033109 56 130 1.0 4.0 0.00 0.00 0.00 29 1008.6
20260507031609 57 129 4.0 7.0 0.00 0.00 0.00 28 1008.0
20260507030110 57 137 4.0 5.0 0.00 0.00 0.00 28 1007.9
20260507024632 57 121 5.0 8.0 0.00 0.00 0.00 28 1007.9
20260507023104 58 117 4.0 6.0 0.00 0.00 0.00 27 1007.6
20260507021609 60 106 3.0 5.0 0.00 0.00 0.00 27 1007.7
20260507020112 62 132 3.0 5.0 0.00 0.00 0.00 24 1007.7
20260507014603 63 127 3.0 5.0 0.00 0.00 0.00 24 1007.8
20260507013103 65 113 3.0 4.0 0.00 0.00 0.00 24 1008.0
20260507011609 67 101 3.0 7.0 0.00 0.00 0.00 23 1008.1
20260507010517 68 86 3.0 7.0 0.00 0.00 0.00 21 1008.2
20260507004607 70 96 6.0 11.0 0.00 0.00 0.00 20 1008.1
20260507003047 71 63 5.0 8.0 0.00 0.00 0.00 20 1008.0
20260507001547 69 5 2.0 5.0 0.00 0.00 0.00 20 1008.3
20260507000038 68 311 6.0 9.0 0.00 0.00 0.00 21 1008.4
20260506234556 69 236 5.0 9.0 0.00 0.00 0.00 20 1008.4
20260506233045 68 262 7.0 13.0 0.00 0.00 0.00 20 1008.6
20260506231550 69 303 7.0 14.0 0.00 0.00 0.00 20 1008.7
20260506230056 69 331 5.0 19.0 0.00 0.00 0.00 20 1009.0
20260506224552 69 18 14.0 18.0 0.00 0.00 0.00 20 1009.1
20260506223057 69 351 9.0 17.0 0.00 0.00 0.00 20 1009.6
20260506221549 68 15 7.0 19.0 0.00 0.00 0.00 20 1009.8
20260506220104 68 299 11.0 17.0 0.00 0.00 0.00 19 1009.9
20260506214813 66 351 2.0 13.0 0.00 0.00 0.00 21 1010.2
20260506213127 66 13 9.0 14.0 0.00 0.00 0.00 21 1010.4
20260506211602 67 349 12.0 17.0 0.00 0.00 0.00 20 1010.6
20260506210047 65 327 8.0 16.0 0.00 0.00 0.00 22 1010.9
20260506204555 65 294 7.0 20.0 0.00 0.00 0.00 22 1011.1
20260506203311 64 319 8.0 16.0 0.00 0.00 0.00 22 1011.5
20260506201610 63 267 13.0 17.0 0.00 0.00 0.00 22 1011.8
20260506200116 61 279 5.0 18.0 0.00 0.00 0.00 22 1011.9
20260506194628 60 269 6.0 13.0 0.00 0.00 0.00 22 1012.1
20260506193111 60 282 12.0 17.0 0.00 0.00 0.00 22 1012.4